FW8688 Weather Reports


Display with metric or nautical units.
time (UTC)temp
F
wind
direction
speed
MPH
gust
MPH
rain 1hr
in
rain 24hr
in
rain mn
in
humidity
%
barometer
mb
20260906193304 82 138 11.0 20.0 0.00 0.00 0.00 33 1012.1
20260906192805 81 145 6.0 15.0 0.00 0.00 0.00 34 1012.4
20260906192307 81 154 8.0 15.0 0.00 0.00 0.00 34 1012.4
20260906191805 81 148 7.0 15.0 0.00 0.00 0.00 34 1012.6
20260906190805 81 148 11.0 18.0 0.00 0.00 0.00 33 1012.5
20260906185804 82 153 10.0 17.0 0.00 0.00 0.00 31 1012.6
20260906185306 82 139 12.0 20.0 0.00 0.00 0.00 31 1012.6
20260906184804 82 130 11.0 17.0 0.00 0.00 0.00 31 1012.7
20260906183805 82 130 9.0 14.0 0.00 0.00 0.00 29 1012.9
20260906183304 82 137 9.0 17.0 0.00 0.00 0.00 30 1012.7
20260906182306 82 131 12.0 17.0 0.00 0.00 0.00 30 1012.9
20260906181804 81 142 10.0 16.0 0.00 0.00 0.00 30 1013.0
20260906180305 81 143 11.0 20.0 0.00 0.00 0.00 30 1013.2
20260906175804 81 143 10.0 16.0 0.00 0.00 0.00 30 1013.2
20260906175306 81 138 12.0 17.0 0.00 0.00 0.00 29 1013.2
20260906174804 81 147 10.0 17.0 0.00 0.00 0.00 29 1013.2
20260906174305 81 126 8.0 18.0 0.00 0.00 0.00 30 1013.2
20260906173805 81 133 12.0 16.0 0.00 0.00 0.00 29 1013.3
20260906173304 81 136 11.0 18.0 0.00 0.00 0.00 29 1013.4
20260906172804 80 145 9.0 15.0 0.00 0.00 0.00 30 1013.7
20260906172306 80 148 9.0 20.0 0.00 0.00 0.00 31 1013.7
20260906171805 80 135 10.0 14.0 0.00 0.00 0.00 31 1013.8
20260906171304 79 135 8.0 16.0 0.00 0.00 0.00 33 1013.8
20260906170304 78 138 8.0 13.0 0.00 0.00 0.00 35 1013.8
20260906165306 77 146 7.0 12.0 0.00 0.00 0.00 34 1013.9
20260906164804 77 153 6.0 12.0 0.00 0.00 0.00 35 1013.9
20260906163805 76 147 7.0 17.0 0.00 0.00 0.00 35 1014.2
20260906163305 76 145 7.0 15.0 0.00 0.00 0.00 36 1014.1
20260906162804 76 133 7.0 15.0 0.00 0.00 0.00 37 1014.2
20260906162306 75 138 9.0 12.0 0.00 0.00 0.00 37 1014.2
20260906161804 75 154 6.0 12.0 0.00 0.00 0.00 38 1014.2
20260906161304 74 148 7.0 12.0 0.00 0.00 0.00 37 1014.3
20260906160805 74 150 8.0 12.0 0.00 0.00 0.00 38 1014.4
20260906160304 74 144 6.0 10.0 0.00 0.00 0.00 39 1014.4
20260906154304 73 160 3.0 9.0 0.00 0.00 0.00 42 1014.5
20260906153804 72 149 6.0 12.0 0.00 0.00 0.00 41 1014.6
20260906153304 72 152 4.0 10.0 0.00 0.00 0.00 42 1014.5
20260906152804 72 148 5.0 12.0 0.00 0.00 0.00 42 1014.6
20260906152307 71 148 3.0 7.0 0.00 0.00 0.00 45 1014.6
20260906151804 71 154 3.0 6.0 0.00 0.00 0.00 46 1014.6
20260906151304 71 153 2.0 5.0 0.00 0.00 0.00 46 1014.7
20260906150804 70 152 4.0 7.0 0.00 0.00 0.00 45 1014.7
20260906144804 69 161 6.0 10.0 0.00 0.00 0.00 48 1014.8
20260906144304 68 150 3.0 7.0 0.00 0.00 0.00 51 1014.7
20260906143804 68 154 5.0 8.0 0.00 0.00 0.00 52 1014.7
20260906143305 68 149 5.0 8.0 0.00 0.00 0.00 55 1014.7
20260906142804 67 159 4.0 6.0 0.00 0.00 0.00 55 1014.7
20260906142306 67 153 2.0 5.0 0.00 0.00 0.00 56 1014.7
20260906141805 66 162 2.0 3.0 0.00 0.00 0.00 57 1014.6
20260906141304 66 165 1.0 3.0 0.00 0.00 0.00 57 1014.6
20260906140804 65 149 2.0 5.0 0.00 0.00 0.00 58 1014.4
20260906140304 65 140 2.0 6.0 0.00 0.00 0.00 59 1014.5
20260906135306 63 122 2.0 3.0 0.00 0.00 0.00 61 1014.4
20260906134804 63 116 2.0 5.0 0.00 0.00 0.00 63 1014.4
20260906134304 62 140 1.0 3.0 0.00 0.00 0.00 66 1014.4
20260906132805 62 287 1.0 3.0 0.00 0.00 0.00 62 1014.1
20260906132306 62 241 0.0 3.0 0.00 0.00 0.00 60 1014.0
20260906131805 62 150 0.0 2.0 0.00 0.00 0.00 60 1014.0
20260906131305 62 133 2.0 3.0 0.00 0.00 0.00 59 1013.8
20260906130305 62 102 1.0 3.0 0.00 0.00 0.00 58 1013.7
20260906125804 63 310 0.0 0.0 0.00 0.00 0.00 57 1013.8
20260906125306 63 310 0.0 0.0 0.00 0.00 0.00 57 1013.8
20260906124805 63 310 0.0 0.0 0.00 0.00 0.00 57 1013.7
20260906124304 63 310 0.0 0.0 0.00 0.00 0.00 56 1013.7
20260906123804 64 310 0.0 1.0 0.00 0.00 0.00 56 1013.7
20260906123304 64 278 1.0 2.0 0.00 0.00 0.00 54 1013.8
20260906122804 64 27 0.0 0.0 0.00 0.00 0.00 53 1013.7
20260906122306 65 27 0.0 0.0 0.00 0.00 0.00 53 1013.7
20260906121304 66 27 0.0 0.0 0.00 0.00 0.00 56 1013.9
20260906120804 66 27 0.0 0.0 0.00 0.00 0.00 53 1013.9
20260906120304 66 27 0.0 0.0 0.00 0.00 0.00 53 1013.8
20260906115306 66 290 0.0 0.0 0.00 0.00 0.00 51 1013.8
20260906114804 67 290 0.0 0.0 0.00 0.00 0.00 49 1013.8
20260906113804 67 233 2.0 3.0 0.00 0.00 0.00 46 1013.7
20260906113305 68 338 1.0 3.0 0.00 0.00 0.00 45 1013.6
20260906112804 68 313 2.0 3.0 0.00 0.00 0.00 45 1013.6
20260906112306 69 315 2.0 3.0 0.00 0.00 0.00 43 1013.6
20260906111804 69 328 2.0 3.0 0.00 0.00 0.00 41 1013.5
20260906111304 69 117 1.0 5.0 0.00 0.00 0.00 37 1013.5
20260906110804 69 128 2.0 5.0 0.00 0.00 0.00 39 1013.6
20260906105805 69 151 3.0 6.0 0.00 0.00 0.00 41 1013.4
20260906105306 69 144 5.0 8.0 0.00 0.00 0.00 42 1013.5
20260906104304 69 146 4.0 7.0 0.00 0.00 0.00 42 1013.4
20260906103804 69 139 6.0 10.0 0.00 0.00 0.00 44 1013.4
20260906103304 69 135 3.0 8.0 0.00 0.00 0.00 46 1013.5
20260906102804 70 148 3.0 6.0 0.00 0.00 0.00 45 1013.4
20260906102306 70 142 3.0 6.0 0.00 0.00 0.00 42 1013.4
20260906101804 70 150 3.0 7.0 0.00 0.00 0.00 42 1013.3
20260906101304 70 139 3.0 7.0 0.00 0.00 0.00 41 1013.3
20260906100804 70 140 6.0 9.0 0.00 0.00 0.00 40 1013.1
20260906100304 69 140 5.0 12.0 0.00 0.00 0.00 41 1013.2
20260906095804 69 130 6.0 9.0 0.00 0.00 0.00 44 1013.2
20260906095306 69 135 7.0 10.0 0.00 0.00 0.00 45 1013.2
20260906094805 69 124 7.0 12.0 0.00 0.00 0.00 47 1013.3
20260906094304 69 120 6.0 10.0 0.00 0.00 0.00 47 1013.3
20260906093804 69 126 4.0 8.0 0.00 0.00 0.00 47 1013.3
20260906092804 69 112 3.0 5.0 0.00 0.00 0.00 45 1013.2
20260906091804 71 111 7.0 9.0 0.00 0.00 0.00 41 1013.2
20260906091304 72 114 5.0 9.0 0.00 0.00 0.00 36 1013.1
20260906090803 73 112 6.0 8.0 0.00 0.00 0.00 33 1013.2
20260906090304 73 123 6.0 8.0 0.00 0.00 0.00 31 1013.2
20260906085306 73 139 4.0 10.0 0.00 0.00 0.00 32 1013.1
20260906084804 73 141 5.0 10.0 0.00 0.00 0.00 32 1013.1
20260906084304 74 142 6.0 12.0 0.00 0.00 0.00 31 1013.1
20260906083804 74 148 7.0 12.0 0.00 0.00 0.00 30 1013.0
20260906083304 74 157 6.0 12.0 0.00 0.00 0.00 30 1013.1
20260906082804 74 160 6.0 10.0 0.00 0.00 0.00 30 1013.1
20260906082306 74 151 5.0 9.0 0.00 0.00 0.00 30 1013.1
20260906081805 74 149 7.0 12.0 0.00 0.00 0.00 29 1013.1
20260906081304 73 161 6.0 12.0 0.00 0.00 0.00 30 1013.1
20260906080804 73 149 7.0 10.0 0.00 0.00 0.00 31 1013.1
20260906080304 73 140 6.0 9.0 0.00 0.00 0.00 32 1013.1
20260906075804 73 150 7.0 10.0 0.00 0.00 0.00 32 1013.1
20260906075306 73 144 5.0 12.0 0.00 0.00 0.00 33 1013.1
20260906074804 73 143 6.0 8.0 0.00 0.00 0.00 33 1013.1
20260906074304 73 144 7.0 12.0 0.00 0.00 0.00 33 1013.0
20260906073804 73 151 6.0 12.0 0.00 0.00 0.00 32 1013.0
20260906073304 73 151 5.0 8.0 0.00 0.00 0.00 33 1013.0
20260906072804 74 160 5.0 10.0 0.00 0.00 0.00 33 1012.9
20260906072306 74 141 6.0 9.0 0.00 0.00 0.00 33 1012.9
20260906071804 74 146 6.0 9.0 0.00 0.00 0.00 33 1012.9
20260906071304 74 148 4.0 8.0 0.00 0.00 0.00 34 1012.7
20260906070804 74 147 5.0 9.0 0.00 0.00 0.00 34 1012.7
20260906070304 75 153 5.0 8.0 0.00 0.00 0.00 33 1013.1
20260906065305 75 161 5.0 9.0 0.00 0.00 0.00 31 1013.0
20260906064304 76 151 5.0 8.0 0.00 0.00 0.00 29 1012.8
20260906063804 76 150 5.0 12.0 0.00 0.00 0.00 28 1012.8
20260906063304 76 166 6.0 13.0 0.00 0.00 0.00 28 1012.8
20260906062306 76 152 6.0 12.0 0.00 0.00 0.00 28 1012.9
20260906061803 76 136 6.0 12.0 0.00 0.00 0.00 29 1012.7
20260906061305 76 146 5.0 12.0 0.00 0.00 0.00 29 1012.7
20260906060304 76 134 6.0 10.0 0.00 0.00 0.00 27 1012.6
20260906055804 77 138 7.0 9.0 0.00 0.00 0.00 27 1012.5
20260906055306 77 149 6.0 12.0 0.00 0.00 0.00 26 1012.5
20260906054804 77 131 7.0 13.0 0.00 0.00 0.00 25 1012.5
20260906054304 77 143 8.0 13.0 0.00 0.00 0.00 25 1012.5
20260906053803 77 125 8.0 12.0 0.00 0.00 0.00 26 1012.6
20260906053305 77 133 7.0 12.0 0.00 0.00 0.00 28 1012.6
20260906052804 77 131 9.0 12.0 0.00 0.00 0.00 28 1012.5
20260906052306 77 138 9.0 13.0 0.00 0.00 0.00 28 1012.5
20260906051804 77 143 9.0 15.0 0.00 0.00 0.00 27 1012.4
20260906051304 77 124 8.0 15.0 0.00 0.00 0.00 27 1012.5
20260906050804 77 137 5.0 12.0 0.00 0.00 0.00 28 1012.6
20260906050305 77 133 9.0 14.0 0.00 0.00 0.00 29 1012.4
20260906045804 77 125 13.0 17.0 0.00 0.00 0.00 29 1012.4
20260906045306 77 125 9.0 15.0 0.00 0.00 0.00 29 1012.4
20260906044304 78 131 10.0 14.0 0.00 0.00 0.00 30 1012.4
20260906043804 78 126 7.0 12.0 0.00 0.00 0.00 28 1012.4
20260906043304 78 146 7.0 12.0 0.00 0.00 0.00 26 1012.4
20260906042804 78 150 7.0 13.0 0.00 0.00 0.00 25 1012.2
20260906042306 78 142 7.0 10.0 0.00 0.00 0.00 25 1012.2
20260906041304 78 139 7.0 10.0 0.00 0.00 0.00 26 1012.2
20260906040804 78 136 6.0 12.0 0.00 0.00 0.00 26 1012.3
20260906035804 78 149 4.0 9.0 0.00 0.00 0.00 27 1012.0
20260906035306 78 179 3.0 5.0 0.00 0.00 0.00 28 1012.0
20260906034804 78 155 3.0 5.0 0.00 0.00 0.00 31 1012.2
20260906034303 79 151 3.0 6.0 0.00 0.00 0.00 31 1012.3
20260906033804 80 144 5.0 8.0 0.00 0.00 0.00 29 1012.0
20260906033304 81 141 2.0 6.0 0.00 0.00 0.00 22 1012.0
20260906032804 81 249 2.0 3.0 0.00 0.00 0.00 16 1011.8
20260906032306 81 137 1.0 3.0 0.00 0.00 0.00 17 1011.6
20260906031804 81 153 1.0 6.0 0.00 0.00 0.00 16 1011.6
20260906031304 82 209 5.0 7.0 0.00 0.00 0.00 16 1011.4
20260906030805 82 203 3.0 10.0 0.00 0.00 0.00 16 1011.4
20260906025803 83 202 5.0 12.0 0.00 0.00 0.00 16 1011.2
20260906025306 83 222 8.0 12.0 0.00 0.00 0.00 16 1011.1
20260906024805 83 226 7.0 10.0 0.00 0.00 0.00 16 1010.9
20260906024304 83 214 9.0 13.0 0.00 0.00 0.00 16 1010.6
20260906023804 83 221 7.0 13.0 0.00 0.00 0.00 16 1010.6
20260906022804 84 230 14.0 20.0 0.00 0.00 0.00 16 1010.5
20260906022307 84 222 10.0 18.0 0.00 0.00 0.00 16 1010.5
20260906021804 84 212 9.0 18.0 0.00 0.00 0.00 16 1010.5
20260906021304 84 216 10.0 15.0 0.00 0.00 0.00 16 1010.3
20260906020303 84 217 9.0 18.0 0.00 0.00 0.00 16 1010.3
20260906015804 84 208 9.0 14.0 0.00 0.00 0.00 16 1010.4
20260906015306 84 224 10.0 15.0 0.00 0.00 0.00 16 1010.4
20260906014804 84 220 9.0 13.0 0.00 0.00 0.00 16 1010.4
20260906014304 85 227 7.0 13.0 0.00 0.00 0.00 16 1010.5
20260906013304 85 215 11.0 20.0 0.00 0.00 0.00 16 1010.6
20260906012804 85 222 10.0 17.0 0.00 0.00 0.00 16 1010.6
20260906012306 85 206 10.0 16.0 0.00 0.00 0.00 15 1010.6
20260906011804 86 194 7.0 12.0 0.00 0.00 0.00 16 1010.6
20260906011304 86 203 11.0 17.0 0.00 0.00 0.00 16 1010.6
20260906010804 85 230 4.0 12.0 0.00 0.00 0.00 19 1010.8
20260906010303 86 194 2.0 5.0 0.00 0.00 0.00 21 1010.9
20260906005804 86 177 4.0 7.0 0.00 0.00 0.00 21 1010.8
20260906005306 86 170 6.0 12.0 0.00 0.00 0.00 20 1010.8
20260906003804 87 142 5.0 9.0 0.00 0.00 0.00 17 1010.7
20260906003303 87 134 4.0 9.0 0.00 0.00 0.00 17 1010.6
20260906002804 87 138 5.0 7.0 0.00 0.00 0.00 17 1010.7
20260906002306 87 148 6.0 10.0 0.00 0.00 0.00 18 1010.7
20260906001803 87 143 3.0 10.0 0.00 0.00 0.00 18 1010.7
20260906001304 87 140 6.0 12.0 0.00 0.00 0.00 16 1010.7
20260906000804 87 139 6.0 9.0 0.00 0.00 0.00 17 1010.7
20260906000304 87 171 5.0 10.0 0.00 0.00 0.00 17 1010.8
20260905235804 88 153 5.0 7.0 0.00 0.00 0.00 16 1010.8
20260905235306 88 152 5.0 8.0 0.00 0.00 0.00 17 1010.7
20260905234804 88 122 6.0 9.0 0.00 0.00 0.00 16 1010.8
20260905234304 88 145 3.0 7.0 0.00 0.00 0.00 17 1010.8
20260905233804 87 142 6.0 14.0 0.00 0.00 0.00 16 1010.9
20260905233304 87 130 6.0 12.0 0.00 0.00 0.00 16 1010.9
20260905232804 87 134 7.0 12.0 0.00 0.00 0.00 16 1010.9
20260905232306 87 139 5.0 12.0 0.00 0.00 0.00 14 1011.0
20260905231804 87 145 8.0 12.0 0.00 0.00 0.00 16 1011.1
20260905231304 87 126 8.0 12.0 0.00 0.00 0.00 15 1011.1
20260905230803 88 152 7.0 12.0 0.00 0.00 0.00 15 1011.1
20260905230303 87 147 4.0 10.0 0.00 0.00 0.00 15 1011.2
20260905225804 87 142 6.0 12.0 0.00 0.00 0.00 15 1011.2
20260905225305 87 148 7.0 12.0 0.00 0.00 0.00 15 1011.2
20260905224803 87 154 7.0 12.0 0.00 0.00 0.00 14 1011.1
20260905224304 87 163 6.0 10.0 0.00 0.00 0.00 16 1011.3
20260905223804 87 113 7.0 12.0 0.00 0.00 0.00 15 1011.3
20260905223303 87 131 7.0 12.0 0.00 0.00 0.00 15 1011.3
20260905222804 87 153 6.0 14.0 0.00 0.00 0.00 15 1011.3
20260905221804 87 147 9.0 12.0 0.00 0.00 0.00 15 1011.5
20260905221305 87 160 7.0 15.0 0.00 0.00 0.00 16 1011.5
20260905220305 87 166 6.0 15.0 0.00 0.00 0.00 16 1011.8
20260905215805 87 163 8.0 12.0 0.00 0.00 0.00 16 1011.8
20260905213304 86 136 7.0 13.0 0.00 0.00 0.00 17 1012.0
20260905212804 86 149 9.0 14.0 0.00 0.00 0.00 18 1012.1